Location: Strawberry
(45.6646°N, 111.9596°W)
Time: 21:36:00
(UTC+00:00)

Courier 1B - Pass Details

Date: 10 October 2022
Orbit: 962 x 1209 km, 28.3° (Epoch: 29 November)

Event Time Altitude Azimuth Distance (km) Brightness Sun altitude
Rises 19:30:35 0° 232° (SW) 4,104 11.3 37.4°
Reaches altitude 10° 19:34:21 10° 216° (SW) 3,132 11.1 37.3°
Maximum altitude 19:39:36 20° 174° (S) 2,447 11.2 37.2°
Drops below altitude 10° 19:44:46 10° 131° (SE) 3,063 10.6 37.0°
Sets 19:48:23 0° 115° (ESE) 3,986 10.9 36.9°
